星链-5593 (STARLINK-5593 )

导读

STARLINK-5593是美国星链计划中的一颗卫星,于2023年3月3日发射升空。它隶属于SpaceX公司打造的星链卫星互联网星座,主要任务是为全球范围内用户提供低延迟、高速率的宽带互联网接入服务,填补偏远地区网络覆盖空白,推动全球互联网络覆盖进一步完善。

Basic Information
目录编号:
55763
目录名称:
STARLINK-5593
国际标识:
2023-028Y
轨道中心:
EARTH
卫星名称:
星链-5593
卫星全名:
星链-5593 (STARLINK-5593 )
卫星状态:
在轨 (已飞行1289 天)
发射日期:
2023-03-03 UTC
国别 :
美国 (US)
星等 :
--
This satellite is enrolled in the Space Conjunction Data Service (SCDS) and the current flight risk assessment level is: No High Risk
Orbit Information
数据来源 国际轨道数据 AOE轨道数据
星历时间 2026-09-12T09:55:19+0800
14小时前
查看轨道信息
2026-09-10T23:00:00+0800
2天前
查看轨道信息
半长轴 6950.182km 6950.135km
偏心率 0.0002529 0.0002417
轨道倾角 69.999° 69.999°
近地点辐角 270.788° 277.651°
升交点赤经 134.340° 138.011°
平近点角 89.299° 155.984°
近地点 570.287km 570.318km
远地点 573.803km 573.678km
周期 96.107分钟 96.106分钟
每日圈数 14.983336 14.98349
Detailed Information
固有亮度:
5
最大亮度:
2.5
卫星平台:
Starlink v1.5
覆盖范围:
全球
运营商:
太空探索技术公司
运营商所在国:
美国
制造商(研发单位):
太空探索技术公司
制造商所在国:
美国
使用方式:
暂无
Satellite Introduction
星链(Starlink)计划是由太空探索技术公司(SpaceX)提出的一个巨型低轨卫星互联网星座项目,计划在2019年至2024年间在太空搭建由约1.2万颗卫星组成的“星链”网络,其中1584颗将部署在地球上空550千米处的近地轨道,并从2020年开始工作。该卫星仍在工作。
2D Orbit Map
3D Orbit Map
Orbit Altitude Analysis Chart
Orbit Inclination Analysis Chart
Orbit Comprehensive Analysis Chart
View Comprehensive Chart
Conjunction Data List
Event ID Objects TCA Miss Dist (km) Collision Risk Probability Collision Risk Index (CRI) Action
CDM_260914-084105-576306-055123
BRO-14 (60551)
2026-09-14T
08:41:00+0000
0.800 km
远距离
5.694799E-5 中风险 0.7
CDM_260912-212405-576306-055126
BRO-14 (60551)
2026-09-12T
21:24:07+0000
1.375 km
极远距离
9.027577E-6 低风险 0.54
CDM_260912-230005-576306-055126
BRO-14 (60551)
2026-09-12T
23:00:20+0000
1.739 km
极远距离
4.236562E-6 低风险 0.48
CDM_260914-070405-576306-055122
BRO-14 (60551)
2026-09-14T
07:04:47+0000
2.587 km
极远距离
1.65395E-6 低风险 0.39
CDM_260914-101705-576306-055123
BRO-14 (60551)
2026-09-14T
10:17:14+0000
2.871 km
极远距离
1.414062E-6 低风险 0.38
Miss Distance Evolution Trend with All Objects
Collision Probability Evolution Trend with All Objects